Change the Weather History Date:

Thursday, July 18, 2013

  Actual Average Record
Temperature  
Mean Temperature 82 °F 71 °F  
Max Temperature 92 °F 82 °F 93 °F (1966)
Min Temperature 71 °F 60 °F 47 °F (1971)
Degree Days  
Heating Degree Days 0 0  
Month to date heating degree days 1 1  
Since 1 June heating degree days 58 56  
Since 1 July heating degree days 1 1  
Cooling Degree Days 17 7  
Month to date cooling degree days 159 124  
Year to date cooling degree days 343 287  
Since 1 June cooling degree days 276 250  
Growing Degree Days 31 (Base 50)    
Moisture  
Dew Point 72 °F    
Average Humidity 76    
Maximum Humidity 93    
Minimum Humidity 59    
Precipitation  
Precipitation 0.14 in 0.11 in 0.90 in (1970)
Month to date precipitation 0.49 2.00  
Year to date precipitation 17.73 15.87  
Sea Level Pressure  
Sea Level Pressure 30.10 in    
Wind  
Wind Speed 4 mph (SW)    
Max Wind Speed 15 mph    
Max Gust Speed 23 mph    
Visibility 10 miles    
Events      
T = Trace of Precipitation, MM = Missing Value Source: NWS Daily Summary

Daily Weather History Graph

Daily Weather History Graph

Search for Another Location

Airport or City:

Trip Planner

Search our weather history database for the weather conditions in past years. The results will help you decide how hot, cold, wet, or windy it might be!

Date:

Astronomy

Jul. 18, 2013 Rise Set
Actual Time 6:17 AM EDT 9:10 PM EDT
Civil Twilight 5:44 AM EDT 9:43 PM EDT
Nautical Twilight 5:02 AM EDT 10:25 PM EDT
Astronomical Twilight 4:13 AM EDT 11:13 PM EDT
Moon 5:05 PM EDT (7/18) 2:08 AM EDT (7/18)
Length of Visible Light 15h 59m
Length of Day
14h 52m
Waxing Gibbous, 77% of the Moon is Illuminated
Jul 18
Waxing Gibbous
Jul 22
Full
Jul 29
Last Quarter
Aug 6
New
Aug 14
First Quarter

Hourly Weather History & Observations

Time (EDT) Temp. Heat Index Dew Point Humidity Pressure Visibility Wind Dir Wind Speed Gust Speed Precip Events Conditions
12:56 AM 73.0 °F - 71.1 °F 93% 30.19 in 10.0 mi WSW 3.5 mph - N/A   Clear
1:56 AM 73.9 °F - 71.1 °F 91% 30.18 in 10.0 mi Calm Calm - N/A   Clear
2:56 AM 73.0 °F - 71.1 °F 93% 30.17 in 10.0 mi Calm Calm - N/A   Clear
3:56 AM 72.0 °F - 70.0 °F 93% 30.16 in 10.0 mi Calm Calm - N/A   Clear
4:56 AM 72.0 °F - 70.0 °F 93% 30.15 in 10.0 mi WSW 3.5 mph - N/A   Clear
5:56 AM 72.0 °F - 69.1 °F 91% 30.15 in 10.0 mi Calm Calm - N/A   Clear
6:56 AM 73.0 °F - 70.0 °F 90% 30.15 in 10.0 mi Calm Calm - N/A   Clear
7:56 AM 75.9 °F - 72.0 °F 87% 30.15 in 10.0 mi West 4.6 mph - N/A   Clear
8:56 AM 80.1 °F 84.2 °F 73.0 °F 79% 30.15 in 10.0 mi Variable 4.6 mph - N/A   Clear
9:56 AM 84.0 °F 91.2 °F 73.9 °F 72% 30.14 in 10.0 mi Variable 3.5 mph - N/A   Clear
10:56 AM 87.1 °F 96.3 °F 75.0 °F 67% 30.13 in 10.0 mi WSW 6.9 mph - N/A   Clear
11:56 AM 89.1 °F 98.0 °F 73.9 °F 61% 30.13 in 10.0 mi Variable 5.8 mph - N/A   Clear
12:56 PM 90.0 °F 97.9 °F 73.0 °F 57% 30.12 in 10.0 mi Variable 5.8 mph - N/A   Partly Cloudy
1:56 PM 86.0 °F 93.0 °F 73.0 °F 65% 30.11 in 10.0 mi West 9.2 mph - N/A   Mostly Cloudy
2:56 PM 73.0 °F - 66.9 °F 81% 30.11 in 10.0 mi WSW 5.8 mph - 0.14 in   Partly Cloudy
3:56 PM 75.9 °F - 70.0 °F 82% 30.08 in 10.0 mi WSW 4.6 mph - N/A   Clear
4:56 PM 82.0 °F 86.3 °F 71.1 °F 69% 30.05 in 10.0 mi West 3.5 mph - N/A   Clear
5:56 PM 82.9 °F 88.8 °F 73.0 °F 72% 30.02 in 10.0 mi SSW 3.5 mph - N/A   Clear
6:56 PM 86.0 °F 95.1 °F 75.0 °F 70% 30.00 in 10.0 mi SSW 3.5 mph - N/A   Clear
7:56 PM 86.0 °F 95.1 °F 75.0 °F 70% 29.99 in 10.0 mi SW 4.6 mph - N/A   Clear
8:56 PM 82.0 °F 85.9 °F 70.0 °F 67% 29.98 in 10.0 mi SW 4.6 mph - N/A   Clear
9:56 PM 79.0 °F - 70.0 °F 74% 29.99 in 10.0 mi Calm Calm - N/A   Clear
10:56 PM 79.0 °F - 71.1 °F 77% 29.99 in 10.0 mi SW 3.5 mph - N/A   Clear
11:56 PM 78.1 °F - 72.0 °F 81% 29.99 in 10.0 mi SW 4.6 mph - N/A   Clear